Tracking 28790 objects as of 19-Apr-2024
HD Live streaming from Space Station
objects crossing your sky now

FENGYUN 1C DEB

Track FENGYUN 1C DEB now!
10-day predictions


NORAD ID: 31992
Int'l Code: 1999-025CPV
Perigee: 772.5 km
Apogee: 1,600.7 km
Inclination: 99.1 °
Period: 109.0 minutes
Semi major axis: 7557 km
RCS: 0.0005 m2 (small)
Launch date: May 10, 1999
Source: People's Republic of China (PRC)
Launch site: Taiyaun Space Center, China (TSC)

Note: This is SATELLITE DEBRIS
Your satellite tracking list
Your tracking list is empty




NASA's NSSDC Master Catalog

Two Line Element Set (TLE):
1 31992U 99025CPV 24106.32531190  .00001373  00000-0  15495-2 0  9996
2 31992  99.1348 133.2019 0547967  58.5555 306.7947 13.21377424458603
Source of the keplerian elements: AFSPC